[[{"header":{"parameterUnit":"m.s-1","parameterCategory":1,"la1":30.2991,"la2":30.254,"lo1":-89.0895,"lo2":-89.0444,"dy":0.0017,"dx":0.0017,"nx":28,"ny":28,"refTime":"2025-09-09T03:00:00:Z","depth":0,"parameterNumber":2,"parameterNumberName":"U-component_of_WINDS"},"data":[0,0,0,0,0,0,0,0,0,0,0,0,0,0,0,0,0,0,0,0,0,0,0,0,0,0,0,0,0,0,0,0,0,0,0,0,0,0,0,0,0,0,0,0,0,0,0,0,0,0,0,0,0,0,0,0,0,0,-1.2549,-1.255,0,-1.2632,-1.2633,-1.2634,-1.2591,-1.2588,-1.2586,-1.2584,-1.2676,-1.268,-1.2685,0,0,0,0,0,0,0,0,0,0,0,0,0,-1.2362,-1.2365,-1.2549,-1.255,-1.2551,-1.2631,-1.2633,-1.2634,-1.2591,-1.2588,-1.2586,-1.2583,-1.2675,-1.268,-1.2685,0,0,0,0,0,0,0,0,0,0,0,0,0,-1.2444,-1.2367,-1.2549,-1.2539,-1.2539,-1.2631,-1.2633,-1.2634,-1.2592,-1.2588,-1.2585,-1.2582,-1.2673,-1.2679,-1.2686,-1.2794,0,0,-1.2707,-1.271,0,0,0,0,0,0,0,0,-1.2439,-1.2451,-1.254,-1.254,-1.254,-1.2597,-1.26,-1.2688,-1.2592,-1.2572,-1.2584,-1.258,-1.2653,-1.2661,-1.2684,-1.2799,-1.2803,-1.2707,-1.2711,-1.2714,-1.2716,0,0,0,0,0,0,0,-1.2434,-1.2447,-1.2582,-1.2541,-1.2542,-1.2533,-1.2541,-1.2617,-1.2631,-1.2574,-1.2571,-1.2581,-1.2653,-1.2678,-1.2686,-1.2804,-1.2707,-1.2713,-1.2717,-1.272,-1.3012,-1.3015,0,0,0,0,0,0,-1.2427,-1.2442,-1.2579,-1.2584,-1.248,-1.2539,-1.2548,-1.2583,-1.2629,-1.2633,-1.2583,-1.2578,-1.2668,-1.2678,-1.2689,-1.2819,-1.2714,-1.2721,-1.2725,-1.3008,-1.3013,-1.3016,0,0,0,0,0,0,-1.2423,-1.244,-1.2576,-1.2513,-1.2529,-1.2546,-1.2585,-1.2586,-1.2611,-1.2637,-1.264,-1.2606,-1.2666,-1.268,-1.2768,-1.2821,-1.2724,-1.273,-1.3004,-1.3009,-1.3015,-1.3079,0,0,0,0,0,0,-1.2418,-1.2439,-1.2479,-1.2514,-1.2533,-1.2652,-1.2588,-1.259,-1.2622,-1.2616,-1.2659,-1.2663,-1.2664,-1.2758,-1.2775,-1.2829,-1.2735,-1.2999,-1.3006,-1.3013,-1.3072,-1.3086,-1.3098,0,0,0,0,0,-1.2412,-1.2495,-1.2481,-1.2498,-1.2582,-1.2655,-1.2666,-1.2663,-1.2626,-1.2667,-1.2684,-1.2661,-1.2813,-1.2767,-1.2786,-1.2843,-1.2996,-1.3004,-1.3012,-1.3066,-1.3083,-1.3097,0,0,0,0,0,0,-1.2468,-1.25,-1.2484,-1.2581,-1.2615,-1.2647,-1.2699,-1.2682,-1.2729,-1.2722,-1.2719,-1.273,-1.2821,-1.2841,-1.279,-1.295,-1.2899,-1.2911,-1.2934,-1.295,-1.2963,-1.2956,-1.2741,0,0,0,0,0,-1.2492,-1.2545,-1.2571,-1.2654,-1.2672,-1.2682,-1.2714,-1.2709,-1.2745,-1.276,-1.2783,-1.2822,-1.2878,-1.2915,-1.2968,-1.3075,-1.3084,-1.3123,-1.3136,-1.3146,-1.3157,-1.3215,-1.3233,-1.3044,-1.3044,-1.3044,0,0,-1.2541,-1.2565,-1.26,-1.2666,-1.2692,-1.2749,-1.2695,-1.2759,-1.2802,-1.2771,-1.2855,-1.2873,-1.2916,-1.3014,-1.3058,-1.3033,-1.3212,-1.3157,-1.3165,-1.317,-1.3226,-1.3244,-1.326,-1.3049,-1.3048,-1.3047,0,0,-1.2661,-1.2684,-1.2755,-1.2782,-1.2821,-1.2827,-1.2845,-1.2879,-1.289,-1.2973,-1.2951,-1.3004,-1.3101,-1.3132,-1.316,-1.3291,-1.3273,-1.3309,-1.3376,-1.3433,-1.3448,-1.3461,-1.3508,-1.3525,-1.332,-1.332,-1.332,0,-1.2718,-1.2802,-1.2795,-1.2859,-1.289,-1.2862,-1.2935,-1.2962,-1.3018,-1.304,-1.3011,-1.3131,-1.3158,-1.3263,-1.3294,-1.3319,-1.3339,-1.3304,-1.3446,-1.3459,-1.3471,-1.3516,-1.3533,-1.3324,-1.3324,-1.3323,-1.3323,0,-1.287,-1.2929,-1.2982,-1.3033,-1.307,-1.3139,-1.3144,-1.3183,-1.3175,-1.3185,-1.3271,-1.3302,-1.3361,-1.3385,-1.3379,-1.349,-1.3473,-1.3445,-1.3393,-1.3493,-1.3535,-1.3552,-1.333,-1.3328,-1.3327,-1.3326,0,0,-1.3028,-1.3073,-1.3093,-1.3116,-1.3157,-1.3203,-1.3272,-1.3326,-1.3359,-1.3399,-1.3457,-1.3539,-1.3513,-1.3546,-1.3543,-1.3593,-1.3694,-1.3559,-1.356,-1.3583,-1.3818,-1.3838,-1.3858,-1.3682,-1.3685,-1.3688,-1.3814,0,-1.315,-1.3266,-1.3262,-1.3371,-1.3426,-1.34,-1.346,-1.3492,-1.3504,-1.3554,-1.3568,-1.3626,-1.3587,-1.3606,-1.3654,-1.3672,-1.3742,-1.3663,-1.3738,-1.3741,-1.3727,-1.388,-1.3902,-1.402,-1.3831,-1.3834,-1.3836,0,-1.3308,-1.3349,-1.3463,-1.3495,-1.3518,-1.3572,-1.3621,-1.3669,-1.3706,-1.3711,-1.3747,-1.3736,-1.3808,-1.3754,-1.3853,-1.3799,-1.383,-1.3843,-1.3848,-1.3855,-1.3794,-1.3891,-1.4057,-1.4075,-1.3861,-1.3859,-1.3857,0,-1.3411,-1.3496,-1.3575,-1.3595,-1.3635,-1.3673,-1.3692,-1.3726,-1.3759,-1.3803,-1.3825,-1.3879,-1.3908,-1.3951,-1.3955,-1.3916,-1.4056,-1.4002,-1.4063,-1.4063,-1.4094,-1.4092,-1.4267,-1.4114,-1.4114,-1.4113,-1.4113,0,-1.3547,-1.3618,-1.3622,-1.367,-1.3749,-1.3745,-1.3824,-1.384,-1.387,-1.3923,-1.3905,-1.3955,-1.3958,-1.4011,-1.4016,-1.4097,-1.4111,-1.4118,-1.4119,-1.412,-1.4119,-1.414,-1.4132,-1.4118,-1.4117,-1.4116,-1.4115,0,-1.3676,-1.3681,-1.3765,-1.3795,-1.3804,-1.3861,-1.3888,-1.3936,-1.3945,-1.4012,-1.4028,-1.4044,-1.4105,-1.4113,-1.4186,-1.4189,-1.4287,-1.4279,-1.4273,-1.4272,-1.4332,-1.4327,-1.4527,-1.4554,-1.4384,-1.4385,-1.4387,0,-1.3762,-1.3816,-1.3851,-1.3883,-1.3903,-1.3957,-1.399,-1.3988,-1.4023,-1.407,-1.4112,-1.417,-1.4217,-1.4316,-1.4335,-1.4391,-1.4384,-1.4451,-1.4392,-1.4392,-1.4385,-1.4382,-1.4387,-1.4462,-1.4464,-1.4465,-1.4466,0,-1.3915,-1.3915,-1.3961,-1.4009,-1.4049,-1.4087,-1.4123,-1.4152,-1.4155,-1.4196,-1.4256,-1.4292,-1.4365,-1.4424,-1.4478,-1.45,-1.4485,-1.4484,-1.4501,-1.4503,-1.4497,-1.4501,-1.4304,-1.448,-1.4479,-1.4478,-1.4477,-1.4476,-1.4025,-1.4071,-1.4103,-1.4156,-1.4182,-1.4216,-1.4262,-1.4276,-1.4325,-1.4382,-1.4379,-1.4446,-1.4483,-1.4554,-1.4579,-1.4633,-1.4612,-1.4637,-1.4643,-1.4649,-1.4655,-1.4489,-1.4643,-1.4643,-1.4643,-1.4642,-1.4642,0,-1.4177,-1.4196,-1.4244,-1.4294,-1.4336,-1.4315,-1.4354,-1.4391,-1.4449,-1.4483,-1.4529,-1.4599,-1.4655,-1.4679,-1.4735,-1.4774,-1.4768,-1.4789,-1.4786,-1.4792,-1.4671,-1.465,-1.4792,-1.4792,-1.4792,-1.4792,-1.4792,-1.4792,-1.4261,-1.4338,-1.4341,-1.4431,-1.445,-1.4513,-1.4537,-1.4569,-1.4596,-1.4674,-1.472,-1.4734,-1.4765,-1.4823,-1.4875,-1.488,-1.4902,-1.4926,-1.4929,-1.4815,-1.48,-1.4786,-1.4766,-1.4931,-1.4931,-1.5045,-1.5046,-1.5047]},{"header":{"parameterUnit":"m.s-1","parameterCategory":1,"la1":30.2991,"la2":30.254,"lo1":-89.0895,"lo2":-89.0444,"dy":0.0017,"dx":0.0017,"nx":28,"ny":28,"refTime":"2025-09-09T03:00:00:Z","depth":0,"parameterNumber":3,"parameterNumberName":"V-component_of_WINDS"},"data":[0,0,0,0,0,0,0,0,0,0,0,0,0,0,0,0,0,0,0,0,0,0,0,0,0,0,0,0,0,0,0,0,0,0,0,0,0,0,0,0,0,0,0,0,0,0,0,0,0,0,0,0,0,0,0,0,0,0,-0.5694,-0.5697,0,-0.5951,-0.5954,-0.5957,-0.6077,-0.6077,-0.6077,-0.6077,-0.6346,-0.6353,-0.6361,0,0,0,0,0,0,0,0,0,0,0,0,0,-0.5311,-0.5317,-0.5694,-0.5697,-0.57,-0.5951,-0.5954,-0.5958,-0.6077,-0.6077,-0.6077,-0.6076,-0.6344,-0.6353,-0.6361,0,0,0,0,0,0,0,0,0,0,0,0,0,-0.5514,-0.5319,-0.5693,-0.579,-0.5801,-0.595,-0.5954,-0.5959,-0.6077,-0.6077,-0.6077,-0.6076,-0.6341,-0.6352,-0.6363,-0.6437,0,0,-0.6396,-0.6401,0,0,0,0,0,0,0,0,-0.5502,-0.5528,-0.5772,-0.5783,-0.5796,-0.5982,-0.5919,-0.6119,-0.6077,-0.5972,-0.6077,-0.6076,-0.6226,-0.6246,-0.6295,-0.645,-0.6461,-0.6397,-0.6404,-0.6409,-0.6412,0,0,0,0,0,0,0,-0.5488,-0.5517,-0.5796,-0.5776,-0.579,-0.5822,-0.585,-0.5957,-0.6098,-0.5982,-0.5991,-0.6019,-0.6232,-0.6284,-0.6303,-0.6465,-0.6397,-0.6407,-0.6414,-0.6418,-0.6695,-0.6695,0,0,0,0,0,0,-0.5457,-0.5505,-0.5788,-0.5804,-0.5645,-0.5829,-0.5861,-0.5922,-0.6097,-0.6123,-0.6019,-0.6024,-0.6266,-0.629,-0.6312,-0.6412,-0.6409,-0.6419,-0.6426,-0.6694,-0.6695,-0.6696,0,0,0,0,0,0,-0.5449,-0.5481,-0.5777,-0.5657,-0.5697,-0.5836,-0.5904,-0.5928,-0.598,-0.6125,-0.6152,-0.6046,-0.6266,-0.6297,-0.6405,-0.6423,-0.6424,-0.6434,-0.6693,-0.6694,-0.6695,-0.661,0,0,0,0,0,0,-0.5437,-0.5477,-0.5506,-0.5656,-0.5703,-0.5863,-0.5905,-0.5933,-0.5998,-0.6007,-0.6158,-0.6183,-0.6268,-0.6388,-0.6416,-0.6438,-0.6443,-0.6692,-0.6694,-0.6695,-0.6612,-0.6608,-0.6605,0,0,0,0,0,-0.5423,-0.5473,-0.5507,-0.554,-0.5741,-0.5864,-0.5891,-0.5987,-0.5999,-0.603,-0.6123,-0.6178,-0.6416,-0.6398,-0.6431,-0.6456,-0.6691,-0.6693,-0.6695,-0.6613,-0.6609,-0.6605,0,0,0,0,0,0,-0.5323,-0.5494,-0.5534,-0.5633,-0.5733,-0.5884,-0.5926,-0.5979,-0.6079,-0.6083,-0.6199,-0.6232,-0.633,-0.6404,-0.6381,-0.6538,-0.6559,-0.6567,-0.6486,-0.6483,-0.6479,-0.646,-0.6452,0,0,0,0,0,-0.5312,-0.5396,-0.5542,-0.5616,-0.5664,-0.5785,-0.5843,-0.5908,-0.6017,-0.606,-0.6162,-0.6266,-0.6365,-0.6428,-0.6527,-0.6623,-0.6658,-0.6657,-0.6653,-0.6649,-0.6655,-0.6713,-0.6714,-0.6701,-0.6701,-0.6701,0,0,-0.5292,-0.5396,-0.5442,-0.5599,-0.5683,-0.5769,-0.582,-0.5909,-0.5975,-0.6075,-0.6182,-0.626,-0.6385,-0.6487,-0.6537,-0.6552,-0.6667,-0.6651,-0.6647,-0.6656,-0.6714,-0.6715,-0.6716,-0.6702,-0.6702,-0.6701,0,0,-0.5298,-0.5384,-0.5456,-0.5539,-0.5666,-0.5746,-0.5763,-0.5906,-0.5961,-0.607,-0.6147,-0.6228,-0.6395,-0.6481,-0.6546,-0.6584,-0.6639,-0.6613,-0.6595,-0.6649,-0.665,-0.6652,-0.6666,-0.667,-0.6618,-0.6618,-0.6618,0,-0.5257,-0.5388,-0.5486,-0.557,-0.5638,-0.5729,-0.5803,-0.588,-0.6033,-0.6078,-0.6092,-0.6303,-0.6394,-0.6518,-0.6527,-0.6577,-0.6601,-0.6597,-0.6642,-0.6644,-0.6647,-0.6662,-0.6667,-0.6614,-0.6615,-0.6615,-0.6616,0,-0.5331,-0.5421,-0.5464,-0.5607,-0.5679,-0.5757,-0.5869,-0.5931,-0.5989,-0.6069,-0.6179,-0.6291,-0.6414,-0.6448,-0.6507,-0.6581,-0.6586,-0.6619,-0.6643,-0.6643,-0.6659,-0.6666,-0.6609,-0.661,-0.6611,-0.6612,0,0,-0.5284,-0.5479,-0.5493,-0.5559,-0.5705,-0.5778,-0.5861,-0.5979,-0.603,-0.6132,-0.6206,-0.6345,-0.6376,-0.645,-0.652,-0.6567,-0.6591,-0.6595,-0.66,-0.6591,-0.668,-0.6655,-0.666,-0.6627,-0.6629,-0.663,-0.667,0,-0.5311,-0.5462,-0.5553,-0.5668,-0.5752,-0.584,-0.5913,-0.6011,-0.6087,-0.6172,-0.6258,-0.6354,-0.6387,-0.6433,-0.6483,-0.6577,-0.661,-0.6575,-0.6699,-0.6702,-0.6666,-0.6668,-0.6642,-0.6675,-0.6677,-0.6678,-0.6679,0,-0.5364,-0.5461,-0.5584,-0.572,-0.5759,-0.5823,-0.5939,-0.6017,-0.6131,-0.6184,-0.6265,-0.6335,-0.6428,-0.6443,-0.6574,-0.6548,-0.6604,-0.6657,-0.6661,-0.6677,-0.6691,-0.6686,-0.6687,-0.6692,-0.669,-0.6689,-0.6688,0,-0.5317,-0.548,-0.5575,-0.5628,-0.579,-0.5832,-0.5902,-0.6015,-0.608,-0.6182,-0.6226,-0.6337,-0.6399,-0.6485,-0.6583,-0.6584,-0.6704,-0.6727,-0.6752,-0.675,-0.6775,-0.6772,-0.6786,-0.6808,-0.6808,-0.6808,-0.6808,0,-0.5339,-0.5411,-0.5556,-0.5614,-0.5697,-0.5801,-0.5882,-0.5959,-0.6059,-0.6135,-0.6218,-0.6288,-0.6413,-0.6499,-0.6577,-0.6674,-0.6701,-0.6747,-0.6767,-0.6741,-0.6735,-0.678,-0.6781,-0.681,-0.6809,-0.6809,-0.6809,0,-0.5302,-0.5401,-0.551,-0.5653,-0.5691,-0.5746,-0.587,-0.5931,-0.601,-0.6106,-0.6135,-0.6261,-0.6367,-0.6472,-0.6615,-0.6667,-0.6763,-0.679,-0.6724,-0.6735,-0.6755,-0.6752,-0.68,-0.6812,-0.6823,-0.6823,-0.6823,0,-0.5309,-0.5366,-0.5515,-0.557,-0.5637,-0.5726,-0.5793,-0.5897,-0.5963,-0.6097,-0.6142,-0.6253,-0.6348,-0.6512,-0.6619,-0.6728,-0.6759,-0.6768,-0.6776,-0.6748,-0.6761,-0.6756,-0.6763,-0.6765,-0.6764,-0.6764,-0.6763,0,-0.5313,-0.5359,-0.545,-0.5558,-0.5635,-0.5726,-0.582,-0.5861,-0.5985,-0.6055,-0.6163,-0.6235,-0.638,-0.649,-0.6612,-0.6687,-0.6746,-0.6759,-0.6771,-0.6745,-0.6705,-0.6728,-0.6716,-0.6758,-0.6759,-0.6759,-0.6759,-0.676,-0.53,-0.5354,-0.5467,-0.5566,-0.5647,-0.5733,-0.5797,-0.5884,-0.5975,-0.6099,-0.6156,-0.6264,-0.6378,-0.6547,-0.662,-0.6708,-0.6724,-0.6741,-0.6745,-0.6748,-0.6742,-0.6689,-0.6731,-0.6731,-0.6731,-0.6731,-0.6732,0,-0.5308,-0.5384,-0.5474,-0.5602,-0.568,-0.5726,-0.5833,-0.5896,-0.5989,-0.6089,-0.6179,-0.6303,-0.641,-0.6524,-0.6637,-0.6686,-0.6716,-0.6712,-0.6711,-0.6727,-0.6721,-0.67,-0.6686,-0.6686,-0.6686,-0.6686,-0.6686,-0.6686,-0.5322,-0.5417,-0.5476,-0.5613,-0.569,-0.5795,-0.5852,-0.5932,-0.6012,-0.6146,-0.6234,-0.6306,-0.6412,-0.6534,-0.6635,-0.6666,-0.6704,-0.6693,-0.6732,-0.6724,-0.6727,-0.6731,-0.6711,-0.67,-0.67,-0.6731,-0.6731,-0.6731]}]]